Theta_e
260 261 261 261 261 261 262 262 262 261 263 262 260 260 263 263 259 256 262 263 261 264 267 268 266 267 266 266 266 266 266 266 266 265 265 264 264 264 264 265 265 265 265 265 267 267 267 267 268 269 270 279 280 280 279 278 278 278 279 279 279 279 280 280 280 281 281 282 283 283 284 284 284 284 284 285 285 286 286 287 287 287 287 287 287 286 286
259 260 261 261 260 261 260 259 261 262 262 262 262 261 263 262 261 263 263 263 262 265 267 266 264 266 266 265 266 265 264 263 264 263 263 263 263 263 263 263 263 265 264 265 265 266 266 266 267 267 268 273 279 278 278 278 278 278 278 278 278 278 279 279 281 281 282 282 282 283 283 283 283 283 283 283 284 284 285 285 286 286 286 286 285 284 284
257 259 262 262 262 261 258 261 262 262 262 262 262 262 262 263 262 263 263 262 262 267 268 265 266 265 265 264 263 263 262 262 262 262 262 262 261 262 262 262 263 263 264 264 264 265 265 265 266 266 267 268 277 277 277 277 277 278 278 277 277 277 278 279 280 280 281 281 281 281 282 282 282 282 282 283 283 283 283 284 284 284 285 284 284 284 283
255 258 259 260 261 261 260 259 261 261 261 259 261 261 263 262 260 262 262 260 261 263 264 266 264 263 262 261 261 261 261 261 261 260 260 260 260 261 261 262 262 262 262 263 263 264 264 264 264 265 266 266 274 275 277 276 277 277 277 276 276 277 278 278 279 279 279 280 280 280 281 281 281 281 282 282 282 282 282 283 283 284 283 283 283 283 282
255 258 258 258 259 258 255 255 259 261 261 262 263 263 264 264 264 261 258 259 259 260 262 259 260 260 261 261 261 260 260 260 260 260 260 260 260 260 260 260 261 261 261 262 262 263 263 263 264 264 265 265 270 275 275 276 276 275 275 275 275 275 276 277 277 278 278 278 278 279 279 280 280 280 280 281 281 281 281 282 282 282 282 281 281 281 281
255 255 254 256 254 248 250 260 263 263 261 262 260 260 261 260 259 259 260 259 259 259 258 258 257 258 259 261 261 261 260 259 259 259 260 259 259 259 260 260 260 260 261 261 262 263 263 263 264 264 264 265 266 273 274 275 274 274 274 274 274 274 275 275 276 277 277 277 277 277 278 278 279 279 279 280 280 281 281 280 280 280 280 280 280 280 280
254 254 254 252 248 249 259 264 264 264 263 262 261 260 256 257 257 257 258 257 257 257 257 257 257 258 260 262 260 260 259 259 258 258 259 259 259 258 259 259 259 260 260 260 261 261 262 263 263 263 263 264 265 271 272 272 273 273 273 273 273 273 273 274 275 276 276 277 276 277 277 277 277 277 278 279 279 279 279 279 279 279 279 279 280 279 279
256 253 253 246 248 256 260 263 261 261 263 260 260 258 253 254 254 255 254 256 256 256 256 257 257 257 258 261 260 259 259 259 258 258 258 259 258 258 258 259 259 259 259 259 260 261 262 262 262 262 262 263 264 269 271 271 271 271 271 271 271 272 272 273 273 274 275 275 276 276 276 276 276 276 277 278 278 279 279 279 279 279 279 280 279 279 279
251 253 252 252 258 256 257 258 257 256 255 255 255 251 255 249 254 254 253 254 255 254 255 255 255 257 257 259 258 258 258 258 258 258 258 259 258 258 258 259 258 259 260 259 260 261 261 261 261 261 261 262 263 268 268 268 269 270 270 270 270 270 271 271 272 273 274 274 275 275 275 275 275 275 276 276 277 278 278 278 278 278 278 279 279 279 278
256 252 250 251 251 249 253 254 258 259 259 259 258 255 254 251 253 254 253 252 253 253 253 253 254 255 257 258 257 256 256 258 257 258 258 259 259 258 258 259 258 259 259 259 260 260 260 260 260 260 261 261 263 265 266 266 267 267 268 268 269 269 269 270 271 272 273 273 273 274 274 274 274 275 275 276 276 277 277 277 277 278 278 278 278 278 278
255 254 251 250 248 249 254 256 256 259 258 259 260 255 250 251 251 254 254 252 253 252 251 252 253 254 255 258 255 255 255 257 257 257 257 258 258 258 257 257 257 258 258 258 259 259 259 258 259 259 260 260 262 263 264 264 264 264 265 266 267 268 269 269 269 270 271 272 273 273 273 273 274 274 274 275 276 277 277 277 277 278 277 277 277 277 277
253 251 250 250 251 250 252 256 256 257 259 258 258 247 249 249 251 253 254 252 252 252 252 252 251 252 250 253 253 254 255 257 257 257 257 256 257 257 257 257 258 258 258 257 257 257 257 258 259 259 259 259 260 261 261 262 261 261 262 264 266 268 268 268 269 269 270 270 271 272 272 272 273 273 274 275 275 276 276 276 277 277 277 276 276 275 276
255 256 252 254 252 254 255 255 256 257 258 257 248 247 250 250 251 254 254 253 253 253 251 252 248 252 253 253 254 255 255 256 256 257 257 257 257 256 256 256 259 256 257 256 256 257 257 258 258 258 258 257 258 259 259 259 259 260 261 263 266 267 268 268 268 268 268 269 269 270 272 272 272 272 273 274 275 275 275 276 276 276 276 276 275 275 275
251 252 249 250 251 251 251 254 255 257 254 246 248 250 248 250 252 255 254 253 254 253 251 252 251 252 253 254 254 254 255 255 255 256 256 256 256 257 257 257 257 256 256 256 256 257 257 258 258 258 257 256 257 257 257 257 258 259 261 262 265 266 266 267 267 267 267 268 269 269 270 272 272 272 273 273 274 275 275 275 275 275 275 275 275 275 275
253 252 250 248 247 247 249 252 253 253 252 251 248 250 253 254 254 254 254 253 254 253 251 252 252 252 252 253 253 254 254 254 254 254 255 255 255 255 254 255 256 256 255 255 255 256 257 257 257 257 257 255 256 256 255 256 257 258 260 261 264 265 265 266 266 266 267 267 267 268 269 270 271 271 272 272 273 274 274 274 274 274 274 275 275 274 274
249 249 247 249 249 250 252 253 250 250 250 251 251 252 251 253 253 253 253 253 253 253 251 251 251 251 251 252 253 253 253 254 254 254 255 255 255 255 255 255 255 255 254 255 255 256 256 257 257 257 256 255 255 255 255 257 257 258 259 260 263 264 265 265 265 266 266 266 267 267 268 269 270 270 270 271 272 273 273 273 273 273 273 274 274 274 273
251 249 250 250 250 251 251 252 250 251 252 252 251 252 251 251 253 253 252 252 253 252 252 251 251 250 251 251 252 252 252 253 253 253 253 254 254 254 253 254 255 255 254 254 254 255 256 256 256 256 256 255 254 254 255 256 256 257 258 259 262 263 264 264 264 264 265 266 266 267 268 269 269 269 269 270 271 271 272 272 272 272 272 272 273 273 273
255 254 252 252 250 251 250 251 253 251 251 252 251 251 250 252 253 252 251 252 251 252 252 250 250 250 251 251 251 252 252 252 253 253 253 253 253 253 253 253 254 254 254 254 254 254 255 256 256 255 256 255 253 254 255 255 256 256 257 258 260 262 263 263 264 264 264 265 266 266 267 268 268 269 269 269 269 270 271 271 271 271 271 271 271 271 271
252 248 250 251 250 251 251 251 252 252 252 251 251 251 251 251 251 251 252 251 251 251 251 249 249 250 250 250 250 251 251 251 252 252 252 252 252 252 252 253 254 253 253 253 253 253 254 255 255 255 255 255 255 255 254 255 255 256 256 258 260 261 262 262 263 264 263 264 265 265 266 267 267 268 268 268 268 268 269 269 270 270 270 270 269 269 269
249 249 248 250 251 252 253 253 252 252 251 250 251 251 251 251 250 250 251 251 250 251 249 250 249 249 250 249 249 250 250 251 251 251 251 251 251 251 252 253 253 253 253 252 252 253 253 254 254 254 255 255 255 254 254 255 255 255 256 257 260 260 261 262 262 263 263 264 264 265 265 266 266 267 268 268 268 268 268 268 269 269 269 268 268 268 267
250 250 249 250 251 252 252 251 251 251 251 250 250 251 250 250 249 249 250 250 250 250 249 250 249 248 249 249 249 249 249 250 250 250 250 251 251 251 251 252 253 252 252 252 252 253 253 254 254 254 254 254 255 254 254 254 254 254 255 257 260 260 260 261 261 262 263 263 263 264 265 265 266 267 267 267 268 268 271 271 270 269 268 268 268 268 267
248 248 247 247 246 247 250 251 250 250 251 251 250 250 250 249 248 248 248 248 249 249 249 249 249 248 248 249 249 249 249 249 250 250 250 250 250 251 251 252 252 252 252 252 252 253 253 254 253 253 254 254 254 254 254 254 254 254 255 256 258 259 259 260 261 261 262 262 263 263 263 264 265 266 269 271 270 268 268 271 272 273 271 268 268 267 266
248 246 248 250 248 248 250 251 251 250 250 250 249 249 249 249 248 248 248 248 247 248 248 249 249 248 248 249 249 248 248 249 250 250 250 249 250 250 251 251 251 251 251 252 252 252 253 253 253 253 253 254 254 254 254 254 254 254 255 256 257 258 258 259 260 261 261 261 262 262 263 263 263 264 264 266 270 270 270 269 270 271 272 272 271 270 267
249 249 248 249 248 247 250 251 251 250 249 250 249 249 249 248 248 248 247 247 247 247 247 248 249 249 249 249 249 248 248 249 249 249 250 250 251 251 251 251 251 251 251 251 251 252 253 253 252 253 253 253 253 253 253 253 253 254 254 255 256 256 257 258 260 260 260 261 261 261 261 262 262 262 263 263 264 267 268 268 269 269 270 270 270 270 270
248 250 250 250 249 249 250 250 250 250 250 249 247 247 247 247 247 248 247 247 247 247 247 247 248 249 249 249 249 248 248 248 249 250 250 250 251 251 251 251 250 250 251 251 252 253 252 252 252 252 252 253 253 253 253 253 253 253 254 255 256 256 257 258 259 259 259 259 260 260 259 260 260 260 260 260 260 261 264 266 267 267 267 268 268 268 268
251 250 250 249 248 248 249 249 249 249 248 248 247 247 248 249 249 248 247 247 247 247 247 248 248 249 249 248 248 248 248 248 249 250 249 249 249 250 250 250 250 251 251 251 252 252 252 252 252 252 252 253 253 252 252 252 253 253 254 255 256 257 257 257 258 258 258 258 258 259 259 259 259 259 259 259 259 259 259 260 261 262 263 264 264 264 265
250 250 248 246 246 248 249 246 245 248 247 247 247 247 247 248 249 248 248 248 248 248 248 249 249 249 249 249 249 249 248 249 249 249 249 249 249 249 250 250 251 251 251 251 252 253 252 252 252 252 252 253 252 252 252 252 252 253 254 255 256 257 257 257 257 257 257 257 257 257 258 258 258 258 258 259 259 258 257 257 257 257 257 258 261 262 260
248 247 246 243 243 245 246 248 247 247 247 247 246 246 246 247 247 247 247 248 248 248 248 249 249 248 248 249 249 248 248 248 248 248 248 248 249 249 250 250 251 250 251 252 252 252 252 251 251 251 252 253 252 252 252 252 252 253 253 254 254 255 255 256 256 257 257 256 257 257 257 257 258 258 258 258 257 258 258 257 257 256 256 257 257 260 260
245 245 246 245 246 247 248 247 247 246 246 247 246 245 246 246 246 247 247 247 248 248 247 248 249 249 248 248 248 248 248 247 247 247 248 248 249 250 250 250 250 251 251 252 252 252 251 251 251 251 252 252 252 252 252 251 252 253 253 254 254 254 254 255 256 256 256 256 256 257 258 257 257 257 257 257 257 256 256 255 255 255 255 255 255 256 257
246 246 246 245 246 246 246 245 245 246 245 246 244 244 246 246 246 246 247 247 247 246 247 248 248 247 248 248 248 248 247 247 247 248 248 249 249 250 250 250 250 250 251 251 251 251 251 251 250 250 251 251 252 252 251 251 252 253 253 254 254 255 254 255 255 255 255 255 256 257 256 256 256 256 256 255 256 255 255 254 255 254 254 254 256 254 253
245 245 245 245 245 244 245 245 245 245 245 244 244 245 245 246 245 245 246 247 246 246 247 246 246 247 247 247 247 248 248 248 248 248 248 249 250 250 250 250 248 248 249 249 250 251 251 251 250 250 251 251 252 251 251 251 252 253 253 253 253 255 255 256 256 255 254 254 255 254 254 255 254 255 255 255 254 254 253 253 253 253 253 253 253 253 252
244 242 242 244 244 243 244 244 245 245 245 244 244 244 244 245 244 245 245 245 246 246 246 245 245 246 247 247 247 247 247 247 247 247 248 249 250 250 250 249 249 249 249 249 250 251 251 250 249 250 251 251 252 252 251 251 251 252 251 252 252 253 254 255 254 255 254 254 254 253 253 253 253 253 253 253 252 252 252 251 252 252 252 252 252 251 252
241 240 241 242 242 242 243 244 244 244 245 245 244 244 244 245 245 246 246 246 246 246 245 245 246 246 246 246 246 246 246 246 247 248 249 249 248 249 249 249 249 249 249 250 250 251 251 250 249 250 251 251 252 252 251 251 251 251 251 251 251 252 254 254 255 254 253 253 252 252 251 252 251 251 251 252 251 251 250 251 251 251 251 251 251 251 254
242 243 243 243 242 242 243 244 244 244 244 244 245 245 245 244 242 244 244 244 244 244 244 246 246 246 246 245 245 245 246 246 246 247 247 247 248 248 248 248 248 249 249 250 251 251 251 250 250 250 251 251 251 251 251 251 251 251 251 250 251 252 252 252 253 252 252 251 251 252 251 251 250 250 250 250 250 250 251 250 251 251 251 250 251 251 255
246 246 246 246 246 246 246 245 244 244 243 243 244 243 244 243 242 242 244 244 243 244 245 246 245 244 244 244 244 244 245 245 245 246 246 247 247 247 248 248 248 248 249 251 250 250 250 250 250 250 250 251 251 251 251 251 251 251 250 250 251 252 251 252 252 251 251 251 250 250 249 249 249 251 251 250 249 250 250 251 250 250 250 250 250 251 252
245 246 246 246 245 243 243 243 244 243 243 242 242 242 242 242 241 242 242 243 245 245 245 245 244 243 242 242 242 243 243 244 245 246 246 247 247 247 247 246 246 247 249 250 250 249 250 250 251 251 250 250 251 250 250 250 250 250 250 250 250 251 251 252 251 251 251 250 249 250 249 250 251 251 250 249 249 249 249 248 249 250 249 249 250 250 250
246 246 246 246 246 243 242 243 242 242 242 242 242 242 242 242 242 243 243 244 244 244 243 243 244 242 242 242 243 243 243 243 244 245 245 246 246 245 245 245 246 247 249 249 249 249 249 250 251 251 250 250 250 249 250 251 250 249 249 249 249 249 250 250 250 249 249 249 249 248 250 249 248 248 250 248 248 248 249 248 249 249 249 249 250 249 250
245 245 244 244 243 242 242 242 242 242 242 241 242 243 243 242 242 242 242 243 243 243 243 242 242 243 244 244 243 243 243 243 243 243 243 243 243 244 244 244 246 247 247 247 248 248 249 250 250 249 249 249 249 249 250 252 251 250 248 248 248 248 249 248 248 249 248 247 249 247 247 247 247 246 247 247 247 248 249 249 249 249 248 249 249 249 250
245 245 245 245 243 242 241 242 241 241 241 241 242 242 243 243 243 241 242 243 243 244 243 243 243 242 241 242 242 243 243 242 242 242 242 242 243 241 244 245 246 246 246 246 246 247 249 249 249 248 249 249 249 250 250 251 251 248 247 247 247 247 248 248 248 248 248 248 247 247 246 247 247 247 247 247 247 249 250 249 249 249 248 248 248 248 248
244 244 243 241 241 241 241 241 241 241 241 241 241 242 242 242 242 242 242 242 241 243 241 240 241 241 242 242 242 242 243 243 243 242 242 242 242 242 244 245 245 243 244 249 245 245 248 250 247 245 246 247 248 248 249 250 250 248 247 246 247 247 247 248 247 247 247 246 247 249 247 247 247 247 248 248 247 248 248 248 248 248 248 248 248 248 249
240 240 241 240 241 240 240 240 241 241 241 241 241 242 242 242 241 241 241 242 242 241 241 241 241 242 242 241 241 242 242 243 243 242 242 242 242 243 244 245 244 243 245 245 245 246 248 248 246 244 244 245 245 249 247 249 248 246 246 246 246 246 246 247 247 247 246 246 247 246 246 246 246 246 247 247 247 247 247 248 248 248 247 248 248 248 249
240 239 239 239 240 240 240 240 240 240 240 240 241 242 242 241 242 242 242 242 242 242 241 242 243 243 243 242 242 242 242 242 242 243 242 243 243 243 243 245 245 244 248 248 248 247 245 244 246 248 244 245 246 249 249 248 246 245 245 245 246 246 246 246 246 246 246 246 245 245 246 246 245 246 247 247 247 247 247 247 247 247 247 248 248 248 248
239 239 239 239 239 239 238 239 239 239 240 241 240 240 241 241 241 241 241 241 241 241 241 241 242 243 243 241 240 240 241 242 242 242 242 243 244 245 245 244 245 245 249 247 245 245 245 245 245 244 248 248 247 249 249 246 245 244 244 245 246 246 246 245 245 246 245 244 244 245 244 245 245 245 246 246 246 247 247 247 247 248 248 248 247 248 248
238 238 238 239 239 239 238 238 238 238 238 240 240 239 240 240 240 240 240 240 240 241 241 241 241 241 241 241 240 241 242 243 243 243 243 244 245 245 244 245 245 247 249 246 245 245 245 246 245 248 249 249 249 248 247 245 244 245 244 244 245 244 244 244 244 244 244 245 245 244 245 246 245 245 245 246 246 246 246 247 247 248 248 248 247 248 247
238 238 238 238 238 237 238 238 238 239 240 239 239 238 239 239 239 239 239 239 240 241 242 241 241 242 241 241 242 242 243 243 242 242 241 242 243 243 243 247 246 246 247 247 245 245 245 245 247 249 249 249 248 248 246 245 245 245 244 244 243 244 243 244 244 244 245 245 245 245 246 245 245 245 246 246 248 247 247 247 247 247 247 246 246 246 246
238 239 238 240 239 238 239 239 238 237 237 237 238 240 241 240 239 239 239 239 240 241 241 242 243 243 242 241 241 241 241 242 242 242 243 243 243 243 244 246 245 247 247 247 244 245 244 247 248 248 248 248 248 247 245 246 246 244 243 244 243 244 244 243 244 245 245 246 246 245 246 245 245 246 246 246 246 246 247 247 247 246 246 246 246 246 246
238 238 238 237 239 238 238 237 237 237 236 236 238 242 242 239 238 240 240 240 240 241 240 240 241 241 241 241 241 240 241 241 243 244 244 244 245 245 246 247 247 247 246 244 244 245 245 245 246 247 247 247 247 245 244 245 244 244 244 244 244 244 244 244 244 245 245 245 246 246 247 247 246 246 246 246 246 246 246 246 246 245 245 246 246 247 247
238 239 240 238 238 237 237 236 235 237 237 240 242 243 243 241 240 239 240 240 240 239 240 239 240 240 240 240 240 240 241 239 240 243 243 242 243 243 243 242 244 246 246 245 245 245 246 246 247 247 247 247 246 244 244 244 245 245 245 245 244 244 245 245 245 245 245 245 245 244 244 245 245 244 245 245 245 245 245 244 245 245 244 244 245 245 244
238 239 238 237 237 237 236 237 237 239 241 242 240 242 242 240 239 241 241 240 238 238 240 239 240 241 240 241 239 241 240 241 242 243 242 242 241 242 243 244 244 245 244 243 243 243 245 246 246 246 246 246 244 242 243 243 243 244 243 243 243 244 244 244 244 244 244 244 244 244 244 244 244 243 244 244 244 245 244 245 245 244 245 245 245 245 246
238 237 238 239 239 239 238 238 240 242 244 243 244 243 241 241 242 244 243 242 241 243 243 243 243 243 243 241 241 241 241 241 241 242 242 242 241 242 242 242 243 244 244 243 241 243 244 245 246 245 245 242 242 242 241 242 241 243 243 244 244 243 244 245 246 246 245 244 244 244 244 244 244 245 245 244 245 245 245 245 244 246 248 247 246 246 245
239 240 241 242 243 244 242 243 245 245 244 244 243 243 242 242 243 244 243 243 242 242 243 243 243 244 243 242 242 242 241 241 241 242 242 242 242 243 244 243 243 244 244 244 243 243 243 242 241 243 242 243 242 241 241 242 242 243 243 243 242 243 243 244 243 243 243 243 243 243 244 243 243 243 244 244 244 245 245 245 245 245 244 245 245 245 245
241 242 242 242 242 242 242 242 242 243 243 242 242 241 241 242 242 243 243 244 243 243 242 241 244 242 242 242 242 242 241 241 241 241 243 243 242 242 243 244 243 243 243 242 242 242 242 242 244 245 244 243 242 242 243 244 244 243 243 243 243 243 243 243 243 243 242 244 244 243 244 244 243 244 244 244 244 244 245 244 244 244 245 245 245 245 245
Wind_Speed
7 6 6 5 6 6 7 8 10 15 17 16 13 12 9 9 11 13 12 14 14 15 16 13 7 8 7 8 9 9 9 10 12 14 14 14 15 16 16 17 16 18 18 17 19 20 18 21 21 22 19 15 10 9 8 8 7 7 5 5 6 7 8 8 7 6 6 6 6 8 9 9 10 10 10 10 10 9 9 9 8 9 10 10 11 12 11
9 11 10 9 10 8 8 9 11 13 15 18 18 15 12 11 13 12 13 15 19 12 16 5 5 7 9 8 7 8 12 13 12 13 13 14 15 16 16 17 18 17 18 19 19 19 20 21 21 22 19 19 12 10 9 8 8 7 5 5 5 6 8 7 7 7 8 7 7 8 9 10 10 10 10 10 10 10 10 9 9 9 10 10 10 10 10
8 8 8 8 9 8 10 11 12 13 13 14 15 16 16 16 14 12 14 16 17 10 5 9 9 9 8 10 13 12 11 12 12 12 12 13 14 15 15 16 17 17 18 19 19 21 21 22 22 20 19 19 14 10 9 9 8 7 5 5 5 6 8 7 7 8 8 8 8 9 8 9 9 10 10 9 10 10 10 9 10 9 10 11 10 10 10
9 7 7 8 9 10 10 9 10 11 11 11 10 11 10 13 15 17 16 12 8 5 9 6 9 10 11 11 11 10 10 11 12 12 12 13 14 15 16 15 16 17 19 19 19 20 21 20 21 19 20 19 16 12 10 9 8 7 6 6 6 6 7 7 8 9 9 9 10 9 9 9 9 9 9 10 10 10 10 10 9 9 10 10 10 10 10
9 6 2 3 5 6 8 10 11 15 16 15 15 14 14 16 14 13 12 6 7 7 8 8 9 10 9 9 10 9 10 10 11 12 12 12 13 13 15 15 16 16 16 17 18 19 18 18 19 21 20 19 18 13 11 9 8 8 7 6 7 8 8 8 9 9 9 10 10 10 9 9 8 9 10 11 10 10 10 8 8 10 10 10 10 10 10
7 5 2 4 5 10 10 1 2 8 11 11 11 8 3 8 6 2 6 4 7 10 10 10 10 10 10 10 7 10 9 9 10 11 11 12 13 13 13 14 15 15 15 15 15 17 17 17 18 18 18 17 18 14 11 9 9 8 7 7 6 6 7 9 8 8 9 10 10 9 9 9 9 9 10 10 9 9 9 9 10 10 9 11 10 10 10
5 1 1 3 11 10 2 6 5 3 4 6 5 4 7 7 9 9 6 9 9 10 8 7 8 10 10 9 7 9 10 10 10 11 12 13 14 15 15 16 16 16 17 17 18 18 18 18 18 18 18 18 19 14 12 11 9 7 8 8 8 8 7 7 8 8 9 9 10 9 9 9 9 10 9 9 9 8 8 8 9 8 8 10 10 9 9
3 3 4 8 7 0 2 1 6 7 4 8 8 1 6 8 9 7 5 8 8 9 9 9 9 9 12 6 8 10 11 11 12 12 11 13 14 15 14 15 16 17 18 18 18 18 16 17 16 16 16 18 18 14 12 10 10 8 7 8 10 10 9 9 8 8 8 8 9 8 8 9 9 9 8 8 9 8 8 8 8 8 8 9 10 10 8
6 4 6 9 6 8 8 5 5 5 4 5 3 2 1 3 7 7 6 7 8 9 10 11 12 13 10 6 5 11 12 12 11 12 11 12 12 13 14 13 15 15 15 16 17 16 15 15 15 16 17 17 17 14 12 11 10 9 8 10 10 10 10 10 9 9 8 7 8 8 7 9 9 8 8 8 8 6 9 8 8 8 7 7 8 9 10
5 6 6 5 5 7 1 3 5 4 3 2 4 2 2 4 7 8 8 8 9 10 10 11 14 14 4 5 5 9 14 13 13 12 10 11 11 11 13 13 13 14 14 15 15 14 15 14 14 15 16 17 17 13 12 11 11 10 10 11 10 10 10 11 10 9 8 7 6 6 6 8 8 7 7 6 7 6 8 8 9 8 8 9 8 8 10
2 4 5 4 4 2 4 5 3 5 5 4 6 2 4 3 6 7 7 6 7 7 9 11 12 8 3 2 4 10 17 15 13 14 12 12 12 11 12 13 15 15 15 15 15 14 14 14 16 16 16 18 15 13 12 12 11 11 12 11 11 10 10 10 10 9 8 7 7 6 7 7 6 7 6 5 5 6 7 8 9 8 8 8 8 8 9
4 3 4 6 2 1 1 4 6 7 6 5 2 3 3 2 4 4 5 6 6 6 7 7 6 5 4 7 8 14 16 14 13 13 14 14 13 12 12 12 12 14 13 15 15 15 16 15 16 15 14 14 15 13 12 11 11 12 12 12 11 9 9 9 9 9 8 8 7 7 7 6 6 5 4 5 5 6 6 7 8 8 7 8 9 8 8
9 10 5 4 1 1 3 4 7 7 8 4 3 6 0 0 4 4 5 5 5 5 6 5 3 4 5 10 14 15 14 12 13 12 10 11 12 13 13 13 14 12 12 12 13 14 13 13 14 13 12 12 13 12 11 11 12 12 13 12 11 10 9 9 9 9 8 8 8 7 6 5 5 5 5 5 5 6 7 7 8 8 8 8 9 9 8
5 3 3 4 0 1 2 4 5 7 1 1 5 1 3 3 4 4 5 4 4 4 4 5 5 9 10 12 13 14 13 12 12 12 11 12 11 10 10 14 14 13 12 13 14 13 13 13 13 11 11 11 12 12 11 12 13 12 12 12 11 10 10 9 8 8 8 8 7 6 6 5 5 6 5 5 5 6 5 6 8 8 8 7 8 9 8
1 1 2 2 5 0 2 9 3 1 1 1 1 2 2 2 4 4 5 4 5 5 6 6 8 10 12 12 12 12 12 13 13 12 13 13 13 13 14 14 14 14 13 13 13 13 12 12 12 11 11 11 11 12 11 13 12 12 12 11 11 8 8 8 8 7 7 8 6 5 5 6 5 6 5 4 5 5 6 6 7 8 7 7 8 8 7
2 1 2 3 0 2 1 2 1 0 1 2 0 2 2 3 3 4 4 5 6 6 7 9 10 10 12 12 11 13 12 12 12 12 12 12 12 12 12 12 14 15 13 13 13 13 12 11 11 11 11 10 11 12 13 13 12 12 11 11 10 7 7 7 7 6 6 5 5 5 6 5 5 5 5 4 5 5 5 6 6 6 5 5 6 7 8
1 2 1 1 3 2 1 2 3 3 2 2 1 2 2 3 3 4 4 7 7 7 9 9 10 11 10 11 12 13 14 13 12 12 13 13 13 13 14 13 14 13 13 14 14 13 12 12 10 10 10 10 12 12 13 12 13 12 12 11 9 7 6 6 6 6 4 4 5 5 5 5 6 6 6 5 6 6 5 6 5 6 5 4 5 6 7
1 2 5 5 2 3 2 1 3 4 2 1 3 2 2 3 4 4 5 7 8 8 8 9 9 9 11 13 13 13 13 13 12 12 12 11 11 12 12 13 13 13 12 12 12 13 12 12 10 11 10 10 11 12 12 12 12 12 11 10 8 6 6 6 6 5 5 5 6 6 6 6 6 6 6 6 6 6 6 6 5 6 5 5 6 6 6
5 5 2 1 3 3 4 3 3 2 4 2 2 2 2 3 4 5 5 6 8 9 7 8 11 12 11 12 12 12 11 11 12 12 12 11 12 13 14 13 14 12 12 11 12 13 13 12 11 11 11 10 10 11 12 12 12 12 11 9 7 6 5 5 5 5 5 4 5 7 7 6 6 7 7 7 7 7 6 5 5 5 6 6 6 6 6
2 3 2 1 1 1 2 2 3 4 4 1 2 2 3 3 3 2 5 5 6 6 8 9 11 12 11 11 12 11 11 11 11 11 11 12 13 12 12 13 12 12 11 12 13 13 12 12 11 11 10 10 10 11 10 11 11 11 10 8 6 6 6 5 5 6 6 8 7 6 7 6 6 7 7 6 6 5 5 4 4 6 6 6 6 5 5
3 1 3 4 2 2 4 5 4 3 2 2 4 4 3 3 3 3 4 4 6 6 9 9 10 11 11 10 11 11 11 11 11 10 11 11 12 12 13 12 12 11 12 12 13 12 12 11 11 11 11 10 9 11 11 10 11 10 9 9 6 6 6 6 7 6 7 6 6 6 5 6 6 6 5 5 6 5 8 6 6 6 6 7 7 6 6
4 3 0 3 0 1 3 2 5 3 3 4 6 6 4 2 3 4 6 7 5 5 6 8 9 10 10 9 9 10 10 11 12 12 11 11 11 11 11 11 11 11 12 12 12 12 11 11 11 11 10 10 9 9 10 10 10 9 9 8 5 6 6 6 7 7 6 6 6 6 5 4 5 7 12 14 9 6 7 15 18 17 12 7 6 5 6
1 1 4 1 1 4 6 4 4 3 3 4 6 5 4 3 4 5 7 9 7 7 7 6 9 10 10 11 9 10 10 11 11 11 11 12 11 11 11 11 11 11 11 12 12 12 10 10 10 10 10 9 9 9 9 9 9 8 8 5 5 6 6 6 8 6 6 6 6 5 5 5 5 5 5 8 16 18 16 15 14 16 17 17 16 12 7
1 4 3 0 2 3 5 6 6 4 3 4 5 4 3 4 5 5 6 5 8 9 8 7 7 9 11 10 9 11 11 11 12 13 11 11 11 10 9 9 11 12 12 12 11 11 10 10 10 10 9 8 8 9 9 9 8 7 7 5 5 6 6 6 7 7 6 6 6 6 5 6 6 5 4 5 6 12 15 14 15 17 17 16 16 15 14
2 2 3 2 3 5 4 5 5 3 2 4 3 3 4 5 5 4 5 6 5 7 9 9 9 7 9 10 8 10 11 12 12 13 14 12 11 10 9 10 10 10 10 10 10 9 9 10 10 9 9 8 8 9 9 8 8 7 6 6 6 6 6 6 6 7 7 6 6 6 6 6 6 6 6 5 4 4 7 12 16 17 16 16 15 15 15
3 3 3 3 3 5 5 3 3 1 4 4 4 4 5 8 8 6 5 6 7 6 7 8 9 9 8 8 8 8 10 11 13 12 10 10 10 10 10 10 10 9 10 10 9 9 9 10 9 9 9 8 9 9 9 8 8 6 7 7 7 7 7 8 7 7 7 7 6 6 6 6 5 5 5 5 5 4 4 3 5 9 13 15 15 14 15
2 3 3 4 3 2 1 2 2 4 6 4 4 5 5 5 7 6 6 6 7 7 6 7 8 9 8 8 9 9 10 11 11 9 9 9 10 9 9 9 10 11 11 9 8 8 9 9 9 9 9 9 9 9 9 9 8 6 9 9 7 9 14 10 7 7 7 7 6 6 6 5 5 5 5 5 5 5 4 4 5 5 5 6 9 13 11
2 1 1 2 3 1 4 5 4 5 5 5 4 5 4 4 5 6 7 8 6 4 5 6 7 7 8 8 8 9 9 9 9 9 9 8 8 8 8 10 10 10 9 8 6 7 8 8 9 9 8 9 10 9 9 9 8 8 7 8 8 8 8 9 7 7 6 5 5 5 5 5 5 5 5 5 5 5 5 4 5 4 4 5 4 7 14
2 2 3 4 4 5 5 4 5 5 6 4 4 3 4 5 6 7 7 6 6 5 6 7 6 7 8 8 8 8 9 9 9 10 9 9 9 8 8 8 9 10 8 6 6 7 8 8 8 8 8 9 10 10 10 9 7 8 7 7 7 6 7 6 6 6 6 5 4 5 6 6 5 5 5 5 6 5 5 4 4 4 5 4 5 6 7
1 0 2 4 4 4 5 7 5 6 5 4 4 4 3 5 7 7 7 7 5 5 7 8 8 8 7 8 7 7 9 10 10 9 9 9 9 8 8 8 8 7 6 6 7 8 7 7 7 8 8 9 10 10 9 8 7 8 8 8 7 7 6 6 5 6 5 5 6 7 6 5 5 5 5 5 5 4 5 4 4 4 5 5 6 6 7
3 2 4 4 5 4 5 6 6 5 5 4 4 4 4 3 5 7 7 6 6 6 7 7 8 8 8 7 8 8 8 9 9 9 9 8 8 8 8 8 7 7 7 7 8 7 6 7 6 7 8 8 8 8 8 8 6 6 8 7 7 10 13 12 8 6 5 5 6 6 6 6 5 6 6 5 4 4 4 4 4 4 5 5 5 5 4
3 6 7 7 4 4 4 4 4 5 4 4 3 4 4 4 7 8 8 7 7 7 8 8 8 8 7 7 8 8 8 9 9 9 8 6 6 7 6 7 7 7 7 7 7 6 6 5 6 6 7 7 7 7 7 7 7 7 7 7 6 6 7 10 6 6 6 6 5 5 6 5 5 4 4 4 4 3 3 3 3 3 3 3 3 3 2
3 8 5 1 3 3 4 3 4 5 4 5 5 4 4 3 5 6 7 7 8 8 7 8 8 6 7 8 8 8 8 8 8 8 6 6 6 6 6 6 6 7 7 6 6 6 5 5 6 6 7 8 8 8 7 7 6 6 6 6 5 6 5 6 7 6 5 5 5 5 4 5 5 5 4 4 4 4 3 3 3 3 3 4 4 3 4
5 6 5 3 2 4 6 8 3 4 5 4 4 5 4 4 4 5 6 6 7 8 7 8 7 7 7 7 8 8 7 7 5 5 6 7 7 7 7 6 6 7 7 6 5 3 4 4 5 5 7 8 7 7 7 7 7 6 5 5 5 5 4 4 5 4 4 5 6 6 5 5 4 3 5 5 3 3 4 3 5 4 4 4 4 4 7
4 5 4 5 4 5 5 6 7 6 5 8 7 5 5 4 5 6 6 7 6 7 7 7 6 6 6 6 7 7 6 6 7 7 7 7 7 7 7 7 7 6 6 3 1 2 4 4 4 5 6 6 5 4 5 6 6 5 4 4 4 4 3 3 3 3 3 4 3 4 3 3 2 3 3 2 2 4 3 4 3 4 4 4 5 4 5
4 5 4 4 4 6 5 7 6 6 6 6 7 7 7 6 7 5 5 8 6 7 7 7 6 5 6 5 6 6 7 7 7 7 7 7 7 6 7 7 7 6 6 1 3 3 4 3 5 9 5 4 3 3 4 3 4 4 4 4 4 4 5 4 4 3 3 3 3 3 2 2 1 2 3 3 3 4 3 3 4 4 4 4 4 5 4
3 5 5 4 4 5 6 4 5 5 6 6 6 7 8 7 7 7 5 6 6 6 6 6 7 6 8 7 6 7 6 6 6 6 6 6 6 7 7 7 7 5 4 2 2 4 5 3 7 9 5 3 2 3 4 6 3 4 3 4 4 4 4 5 4 5 4 4 3 3 5 5 4 4 4 2 2 3 3 3 4 4 4 3 3 3 4
3 3 4 5 5 6 7 5 4 4 6 9 7 7 7 7 6 6 5 6 5 5 5 5 6 6 7 7 6 7 7 6 6 6 5 6 6 8 8 6 6 4 3 2 3 5 4 5 8 6 4 2 3 4 4 6 6 5 3 4 4 4 5 3 5 6 4 4 5 3 3 3 3 3 3 3 2 1 2 1 2 1 2 2 2 2 2
4 3 3 4 3 5 6 5 4 4 5 9 9 8 6 5 5 5 5 7 5 4 4 5 4 5 6 6 7 6 5 5 5 7 8 8 7 5 8 8 8 7 5 2 4 4 4 4 5 4 4 5 4 5 5 6 8 5 5 3 4 4 4 4 3 5 4 3 2 2 2 1 1 1 1 2 1 2 3 2 1 2 1 2 1 2 2
4 4 4 3 4 4 4 5 5 5 5 5 5 8 6 5 5 5 6 7 5 4 4 4 4 6 5 6 6 8 7 7 7 7 9 7 5 6 7 7 6 5 4 2 2 4 4 7 4 4 4 4 4 3 4 6 6 4 4 3 2 3 3 4 2 3 3 2 2 3 2 2 1 2 3 2 2 2 3 2 1 2 1 2 2 2 3
6 5 6 4 5 4 5 5 6 6 5 5 5 6 5 5 5 5 7 7 6 4 4 4 5 6 6 6 7 8 8 8 8 10 9 5 5 5 4 6 1 1 1 0 1 2 4 4 3 3 3 2 2 4 2 4 4 3 2 2 1 1 2 2 2 2 3 3 4 3 3 2 2 3 4 2 2 2 3 2 2 2 2 3 3 3 2
6 4 4 4 4 5 5 5 5 6 7 5 6 6 5 5 5 7 6 5 6 6 5 5 6 7 7 6 6 6 7 7 7 7 6 5 5 5 5 5 0 2 1 1 2 3 3 4 4 5 2 1 2 6 7 5 4 4 4 2 2 2 2 2 3 3 4 3 3 4 4 3 3 3 3 4 4 4 3 3 3 3 3 3 3 3 3
7 7 7 5 5 5 5 5 5 6 9 8 5 6 6 5 5 5 6 6 6 6 5 5 5 6 6 5 5 7 7 5 6 5 4 5 7 8 8 4 0 0 1 2 2 4 5 4 5 4 3 4 5 8 7 5 4 4 4 3 3 2 3 3 3 3 3 3 4 4 3 3 4 4 4 4 4 4 4 4 5 5 4 5 5 4 3
7 5 5 5 6 5 4 4 5 5 6 9 4 4 5 6 6 6 7 7 6 5 5 6 6 6 6 5 4 6 6 4 4 4 5 7 6 4 3 5 5 3 2 3 2 4 4 4 4 5 5 7 8 9 6 3 4 5 4 3 3 3 3 4 4 4 4 4 4 4 4 5 3 4 4 5 6 5 4 5 6 5 5 5 5 5 5
6 5 6 7 8 4 5 4 5 6 6 5 7 8 7 8 8 7 6 6 7 6 5 6 6 6 6 5 5 5 6 5 5 4 5 6 5 4 2 3 3 3 4 5 4 5 5 5 7 9 9 9 9 8 4 4 4 4 4 3 3 3 4 4 5 4 5 5 4 5 5 4 5 5 5 5 5 5 6 6 6 5 5 5 5 5 5
7 6 6 5 5 6 6 5 4 2 4 5 8 9 7 7 6 6 5 6 7 7 6 6 6 7 6 6 5 6 6 7 7 6 7 7 6 4 2 5 5 4 6 6 4 5 6 8 11 11 10 9 9 6 4 4 5 4 4 4 4 5 5 4 4 5 5 5 5 5 5 5 5 5 5 5 5 6 6 7 7 5 5 5 5 5 6
6 5 5 8 6 6 6 3 1 2 4 4 5 7 3 3 4 5 6 7 8 7 6 6 6 7 6 6 6 5 5 5 6 5 6 6 6 6 7 7 6 6 5 5 6 6 6 7 8 10 10 10 9 5 4 5 5 5 5 4 5 5 5 5 4 5 5 5 6 6 6 6 5 5 6 6 6 6 6 6 6 6 6 6 5 7 6
4 7 7 7 8 6 3 2 2 5 5 8 7 7 5 3 4 5 5 5 7 6 6 5 6 6 6 6 6 6 6 3 3 7 1 4 3 2 2 3 4 7 8 7 8 7 10 11 11 10 10 9 6 4 5 5 5 5 5 5 5 5 5 5 5 5 5 5 5 4 5 5 5 5 6 6 6 6 6 6 6 6 5 5 5 5 5
8 9 8 6 4 6 5 4 4 6 7 6 5 6 5 4 5 4 6 6 7 5 5 7 8 6 5 7 5 6 6 6 6 6 1 1 3 4 5 5 7 8 7 6 6 6 7 9 10 10 10 8 5 5 4 5 5 6 6 5 5 5 5 5 5 5 5 5 6 6 5 6 6 6 6 7 7 6 7 7 6 6 6 5 5 7 6
4 3 4 5 5 5 5 4 6 7 7 5 7 5 2 0 4 6 4 4 3 4 5 5 5 6 6 4 5 5 5 6 7 7 7 7 6 6 6 6 6 7 7 7 5 6 5 8 8 7 6 4 5 4 4 5 5 5 5 6 5 5 6 7 5 7 6 6 6 6 6 6 6 7 8 6 6 6 6 6 6 7 7 7 7 6 6
4 5 6 6 6 7 7 8 8 6 5 6 5 3 2 3 7 7 5 6 4 5 6 6 6 5 5 4 5 5 5 5 6 5 5 6 5 6 6 5 6 6 7 6 6 6 6 5 5 6 5 5 5 4 4 5 5 6 5 6 5 5 6 7 7 6 6 6 6 6 6 6 6 6 6 6 6 6 6 7 6 6 6 6 6 6 6
7 6 6 5 6 6 6 7 8 8 7 7 6 5 5 5 5 6 6 6 6 6 6 4 7 4 4 4 4 4 4 5 6 4 5 6 5 6 7 6 6 6 6 6 6 5 6 5 6 6 6 6 5 5 5 6 6 6 6 7 5 6 6 7 7 6 5 6 6 6 6 6 6 6 6 6 6 6 6 6 6 6 6 6 6 6 6
Wind_Direction
274 270 274 277 276 269 266 271 282 289 292 285 269 259 255 253 254 263 288 290 290 293 298 314 30 8 44 45 36 42 32 23 16 10 8 7 3 360 3 360 358 358 354 351 345 344 343 340 340 334 330 328 351 348 352 353 355 4 2 46 62 68 70 70 68 68 68 66 69 76 79 81 81 81 82 81 81 82 83 86 87 89 88 88 89 84 77
258 263 265 270 269 268 260 252 258 260 267 276 282 279 272 255 257 272 276 277 275 281 286 347 19 29 25 31 35 40 33 22 17 15 9 4 1 358 357 357 355 353 352 348 345 346 343 344 338 333 329 326 343 346 353 351 354 355 11 32 52 63 69 71 72 72 73 70 71 72 75 78 80 82 83 83 84 83 81 81 84 85 86 84 83 84 85
263 258 256 255 259 259 259 252 250 252 251 258 261 272 279 287 274 262 260 261 269 280 33 56 27 32 25 23 25 20 21 21 18 16 10 5 358 353 352 356 354 351 349 347 346 345 345 341 337 332 325 320 330 344 352 353 354 351 9 35 42 56 69 69 72 73 73 72 70 69 72 75 79 83 84 86 85 83 80 78 80 81 85 85 82 81 80
267 257 256 261 266 270 272 272 264 262 264 258 258 257 253 258 272 283 285 278 273 42 9 28 39 30 31 25 17 12 10 11 14 13 10 4 357 352 350 351 351 351 348 345 346 342 341 338 334 333 327 321 322 344 351 353 353 350 21 35 40 49 57 64 67 71 74 74 72 69 70 72 77 81 86 85 84 84 85 83 80 83 81 80 80 80 79
261 267 284 314 296 297 272 251 251 263 264 266 273 272 272 270 281 278 269 286 39 353 12 11 5 13 13 23 22 12 9 9 8 6 5 1 356 351 348 348 349 349 346 343 339 339 338 337 333 329 326 322 324 339 344 350 350 346 358 23 38 44 47 51 59 67 70 73 72 69 67 72 75 80 82 81 82 84 83 84 86 82 83 84 83 79 77
277 288 336 302 302 258 247 355 305 253 259 267 268 279 334 31 54 358 61 45 23 13 12 14 344 3 344 6 29 39 18 6 360 2 359 356 353 349 347 349 346 345 343 340 337 337 334 332 333 324 323 319 313 328 341 349 356 353 4 14 24 21 25 45 50 55 63 70 70 68 69 69 71 72 73 77 81 82 85 82 81 82 82 84 84 81 79
265 296 297 279 247 259 301 251 260 336 347 12 321 53 46 36 24 17 16 16 16 9 5 351 350 327 322 338 55 37 30 21 6 358 354 355 355 348 346 345 347 344 342 338 336 339 338 339 334 330 327 326 319 325 345 347 348 357 12 22 24 20 23 23 40 45 55 63 68 68 67 68 69 68 72 74 74 75 79 83 84 84 88 89 86 86 86
274 248 226 245 253 134 13 249 59 328 43 32 357 72 60 25 31 12 12 359 357 357 346 346 334 320 308 311 65 41 30 23 9 359 353 350 350 346 345 343 342 341 341 338 335 333 334 335 334 332 327 324 319 327 344 347 344 352 13 31 30 19 21 16 18 28 41 56 65 67 70 73 72 69 68 72 81 80 83 83 80 84 80 87 96 96 92
237 239 240 250 292 299 267 257 41 5 10 5 62 285 84 358 20 15 1 345 353 351 342 343 326 318 304 251 125 41 22 9 9 354 348 346 343 341 339 341 337 338 337 334 330 330 332 335 337 335 331 328 321 331 347 346 344 348 14 33 29 23 20 14 13 16 25 46 59 64 71 76 74 70 69 70 74 82 88 85 87 81 81 81 90 96 89
180 244 265 269 261 262 85 114 70 55 342 337 306 80 263 63 1 12 8 352 350 347 344 341 332 310 291 250 168 28 8 359 354 349 342 344 340 339 337 335 335 335 337 331 328 333 330 335 338 337 336 331 326 336 347 348 348 352 16 25 22 23 20 13 9 8 12 22 36 51 52 70 76 73 69 66 72 82 95 99 91 87 86 81 75 85 90
326 274 258 260 264 249 73 71 13 8 348 328 277 91 270 69 340 355 6 350 352 354 348 339 339 346 299 251 78 5 351 344 346 340 337 343 337 338 338 336 333 338 335 331 327 332 333 341 343 341 341 336 331 339 346 349 351 355 10 11 11 15 17 14 7 6 3 10 28 36 52 62 64 71 67 72 81 89 92 97 96 97 92 90 85 80 90
217 246 262 272 252 203 110 355 359 336 322 344 266 355 265 354 327 321 353 347 347 343 355 337 336 344 293 303 325 341 331 329 334 334 335 337 337 336 335 333 332 336 330 332 334 338 340 343 342 342 344 342 335 341 344 349 353 356 357 355 355 3 13 18 14 6 6 7 13 28 38 44 47 58 56 69 75 89 88 93 102 102 99 95 93 82 76
260 258 265 263 137 122 60 334 330 326 300 293 96 237 224 313 297 316 357 340 343 355 344 350 325 306 318 303 308 316 313 321 328 329 332 332 333 332 336 332 336 334 336 335 332 335 333 340 343 343 346 347 337 339 342 352 354 348 342 338 348 1 9 16 17 12 4 6 9 12 23 40 37 48 40 60 69 81 93 94 103 104 104 105 102 97 90
253 248 259 251 305 186 321 279 314 294 12 137 225 131 204 224 274 349 357 339 345 7 333 314 300 294 304 303 303 307 316 323 319 322 328 329 329 331 335 333 336 334 337 333 333 334 336 340 344 343 346 348 339 337 342 353 347 338 337 337 344 1 7 11 14 15 9 2 4 6 4 27 50 48 34 38 65 81 87 100 106 108 108 106 105 106 108
15 156 251 321 290 292 96 300 301 356 193 305 143 292 240 187 330 344 342 347 331 354 320 310 301 305 301 304 306 310 318 319 320 325 327 331 332 335 338 337 337 337 334 334 333 334 335 339 345 341 346 346 346 338 344 348 340 335 334 335 339 1 7 9 9 12 11 6 4 359 2 19 39 53 33 41 50 77 93 94 95 99 106 112 112 107 101
214 246 215 230 86 129 337 346 261 19 55 73 348 41 283 2 332 351 330 330 333 332 321 313 309 305 306 304 312 314 314 316 319 322 324 326 329 331 335 333 331 336 332 330 330 330 334 337 344 341 348 344 348 342 343 343 337 336 334 331 335 359 8 10 6 8 7 3 4 9 13 28 41 49 45 39 50 58 73 85 90 90 80 96 107 110 108
96 236 275 166 185 120 80 81 105 97 79 70 15 25 318 311 333 354 335 314 324 320 315 310 308 307 305 306 312 315 313 318 321 325 327 327 328 332 331 332 330 334 331 328 326 328 333 339 345 341 348 346 347 348 343 341 339 336 330 326 335 352 7 11 8 348 351 12 14 24 23 29 48 47 48 45 64 45 59 71 81 89 82 82 93 98 95
253 94 63 108 102 114 99 50 106 129 117 85 53 347 341 334 325 338 308 317 312 312 313 310 307 298 306 311 310 311 312 313 319 322 322 323 327 326 327 327 329 330 327 322 323 326 334 340 347 341 347 351 353 345 340 340 337 332 323 319 330 351 4 17 12 1 356 16 30 21 30 33 38 42 50 51 62 58 58 64 69 78 83 74 73 76 81
34 275 51 85 121 159 180 113 105 86 90 31 64 338 313 321 321 304 305 302 307 309 319 301 300 304 308 308 308 308 309 314 317 321 321 326 327 326 325 324 324 328 327 325 326 332 335 342 346 344 345 350 351 347 341 341 334 327 317 313 329 350 5 11 17 17 17 16 29 34 33 34 37 41 45 52 56 54 47 53 67 73 73 72 72 73 76
183 274 172 145 165 29 136 152 177 164 104 56 28 321 298 292 298 319 307 315 303 313 304 306 306 303 305 304 306 309 309 313 316 316 322 324 324 322 319 317 321 324 324 326 328 334 339 341 344 340 343 344 349 350 343 340 331 324 316 316 348 0 5 7 22 25 27 24 28 46 40 34 38 43 50 55 60 58 51 34 62 81 76 72 70 71 72
258 87 76 341 224 111 80 67 64 54 18 356 333 314 310 293 306 318 323 307 299 300 299 308 302 298 299 301 304 305 307 308 311 314 317 320 319 318 317 319 324 322 326 326 329 335 337 340 338 338 338 344 348 351 345 336 332 326 323 324 353 10 11 16 26 25 32 29 26 32 43 43 41 42 47 44 49 47 49 46 57 67 77 77 74 64 60
254 248 101 347 96 194 138 143 82 19 9 337 318 309 299 333 335 330 312 299 286 289 295 302 302 298 298 299 300 301 305 304 305 310 313 314 313 312 313 315 320 323 326 327 331 334 337 339 337 333 337 339 350 348 344 336 333 324 324 322 351 12 13 22 25 31 32 28 30 32 27 33 49 51 57 65 66 55 52 55 66 76 81 78 73 66 71
265 124 230 56 349 293 277 313 2 2 348 326 308 313 320 333 329 309 309 307 306 297 297 300 299 295 296 299 306 304 301 303 305 307 311 312 314 315 316 321 325 330 328 330 331 334 338 338 335 333 332 334 346 346 340 337 331 317 314 324 359 14 11 20 28 23 27 29 30 26 25 25 26 57 51 49 63 67 66 62 60 62 66 71 76 80 82
266 85 64 312 248 248 296 319 321 328 316 314 327 339 337 305 305 303 292 293 300 300 298 295 294 300 300 303 309 303 302 305 309 311 311 312 312 312 318 323 328 328 330 332 331 331 335 334 333 331 329 331 346 339 338 333 331 318 321 336 14 20 11 7 26 28 30 33 34 28 26 25 29 18 47 77 64 60 64 66 63 63 63 65 64 63 67
270 14 340 339 298 285 288 293 305 302 10 32 339 309 310 306 297 294 295 293 288 294 297 298 298 296 300 304 305 303 305 307 310 311 315 319 317 320 324 328 329 331 327 326 322 326 330 330 330 331 326 333 344 338 337 333 330 318 335 349 11 24 15 11 24 31 30 33 31 34 30 29 24 31 36 34 51 58 69 69 65 59 56 55 55 55 55
343 335 349 327 301 276 264 257 249 132 26 346 326 306 305 305 301 299 297 294 290 286 287 289 297 304 305 303 302 300 301 303 309 316 316 317 323 325 325 328 326 322 320 315 314 324 329 331 332 330 326 337 344 337 339 333 328 327 351 355 8 24 24 17 25 31 29 27 27 28 32 29 29 35 32 35 32 30 42 30 40 46 45 44 45 44 39
348 340 348 328 289 241 140 79 300 339 319 313 292 292 291 290 301 299 286 282 276 273 280 295 300 301 306 302 303 305 305 307 311 310 313 316 318 321 319 314 316 317 315 309 311 330 333 332 331 331 329 341 340 339 340 337 326 347 9 10 13 24 26 24 25 32 29 29 24 24 23 25 28 25 32 31 40 43 42 43 42 39 25 21 37 52 41
293 298 196 205 251 297 311 323 316 302 296 293 291 288 293 296 296 296 295 294 295 295 298 299 305 311 308 310 313 308 308 310 310 310 310 311 313 313 309 311 314 313 307 301 327 339 340 335 333 330 331 344 341 342 339 335 332 4 6 16 21 21 19 17 17 27 31 26 24 19 24 18 23 29 29 27 32 35 39 42 45 43 29 29 14 35 39
230 222 222 237 255 277 292 297 294 290 286 282 279 290 298 299 295 296 298 301 303 308 303 309 312 310 309 310 309 305 310 311 310 310 308 307 307 307 309 317 317 310 296 314 345 341 341 337 336 332 335 345 341 347 343 335 338 360 360 13 19 23 15 11 7 16 19 20 13 27 35 27 22 25 30 28 32 36 39 36 38 35 41 17 21 18 28
197 213 270 266 272 288 300 291 283 283 281 283 302 289 286 293 295 296 300 304 315 307 305 309 313 312 311 306 308 312 310 309 307 304 303 304 305 308 319 325 321 315 330 345 338 339 338 335 338 334 342 342 342 345 345 345 347 355 11 14 12 19 18 4 17 12 14 12 21 29 27 30 23 25 30 29 29 31 34 30 41 42 38 35 43 40 25
279 263 266 275 279 281 268 268 269 266 274 282 271 282 284 282 287 293 300 309 311 301 308 311 307 303 305 309 312 308 303 300 300 301 301 299 301 318 326 329 331 330 329 324 321 326 333 334 339 334 342 331 337 341 344 349 345 360 15 12 4 14 15 18 11 19 9 13 20 24 25 27 24 28 30 30 25 27 26 23 35 36 42 44 49 46 31
306 297 284 273 257 245 252 263 278 279 274 270 286 286 292 301 296 299 304 305 306 310 308 305 301 300 311 314 306 302 302 303 302 299 291 292 315 321 322 320 312 312 309 306 309 320 327 336 327 335 330 325 338 343 352 346 352 7 12 3 358 352 4 14 2 8 30 27 27 24 22 25 25 30 29 30 23 23 13 27 33 41 47 52 51 63 36
294 329 324 260 294 290 275 255 268 287 293 294 278 274 278 271 275 285 290 297 303 304 301 294 295 301 307 309 307 306 305 301 288 283 308 322 319 317 319 312 304 304 302 298 301 313 337 335 327 325 329 336 341 352 356 354 355 4 6 357 349 348 358 2 15 13 20 24 21 27 22 26 27 24 21 23 16 15 14 23 28 29 33 39 45 32 28
209 221 242 264 242 265 294 295 277 281 282 266 272 284 286 284 283 286 288 286 281 284 286 293 300 303 303 306 307 304 301 306 313 322 317 315 314 317 315 310 300 295 294 292 298 335 340 327 327 324 331 333 337 354 355 354 356 356 1 350 342 340 359 355 10 14 15 15 17 14 24 24 24 25 15 4 2 7 18 23 17 22 24 24 19 31 16
225 249 254 263 260 260 257 267 284 283 289 293 290 279 274 281 284 278 281 285 282 280 287 293 292 293 299 297 297 298 303 298 297 299 301 306 312 318 315 310 308 301 298 290 62 355 329 314 303 324 327 321 334 3 351 352 349 350 335 332 328 332 338 351 9 24 26 10 12 31 30 25 6 14 8 355 5 14 10 13 7 16 16 14 7 21 10
232 254 259 265 263 256 254 257 259 262 267 269 274 280 283 276 274 277 277 275 278 288 289 291 294 297 292 289 292 295 296 295 292 291 295 306 311 312 311 309 307 307 302 281 135 352 338 310 336 338 334 314 336 8 343 342 354 338 322 334 345 345 347 355 6 17 21 42 14 21 9 336 344 359 9 2 13 16 12 1 9 13 1 5 359 11 359
222 239 251 260 263 270 269 268 264 266 265 265 273 280 281 280 273 269 270 273 272 270 273 281 291 292 290 287 282 280 275 275 275 284 293 302 309 308 310 308 302 283 298 323 357 356 330 321 338 341 330 307 343 345 328 350 352 340 335 348 358 345 349 355 355 14 3 23 9 1 356 7 1 356 1 18 10 358 4 1 357 356 357 349 356 357 355
241 242 254 259 261 262 260 256 257 258 271 277 267 261 266 275 276 273 270 268 268 265 264 262 264 268 279 290 289 284 283 283 283 287 295 302 305 307 302 293 288 302 325 300 334 338 316 324 335 336 311 315 346 322 326 355 9 348 337 341 346 341 347 354 0 353 7 355 357 360 360 360 6 353 343 356 356 0 331 329 340 341 330 330 323 329 328
262 253 252 253 268 270 278 282 279 269 257 266 276 276 268 268 273 281 281 278 272 271 274 272 272 281 282 284 288 287 281 277 283 294 296 296 297 292 279 273 264 252 244 300 341 308 307 315 339 326 318 324 340 332 333 358 2 340 334 342 346 349 340 352 347 338 334 336 359 342 334 331 337 329 334 321 322 301 292 269 266 258 273 281 308 309 306
256 253 255 271 274 270 275 275 272 265 263 252 265 278 282 290 286 282 282 286 281 274 273 280 288 285 288 290 295 296 297 299 297 294 293 295 296 290 285 283 265 240 227 257 290 297 304 322 323 303 303 320 338 327 344 346 346 329 320 342 338 334 332 334 340 343 322 344 333 327 329 316 321 311 289 281 294 290 289 292 297 290 292 298 296 292 309
248 255 262 255 260 266 263 275 278 274 271 273 266 266 274 271 278 282 275 276 282 285 280 273 274 273 270 275 280 282 290 294 297 294 296 308 303 291 297 291 279 147 157 221 278 306 315 302 286 278 274 303 330 318 326 334 323 303 315 309 311 317 317 321 317 312 312 312 322 318 301 304 311 305 300 302 295 291 294 293 289 287 290 294 292 296 298
251 246 255 260 260 260 261 261 278 292 284 266 263 267 268 262 256 260 270 282 288 285 278 267 254 264 272 273 276 284 286 285 283 278 266 252 260 287 296 293 241 163 146 268 351 339 327 323 318 314 318 347 332 320 323 319 311 294 294 313 310 311 309 305 301 296 300 307 295 286 285 288 286 287 293 292 292 287 283 284 289 291 289 285 283 281 282
248 246 252 255 262 265 267 272 270 270 286 287 277 267 263 259 258 269 277 277 273 276 272 268 269 277 281 284 286 289 289 288 279 281 280 253 238 228 231 255 241 143 9 351 1 340 326 314 305 296 324 339 319 318 323 315 303 306 305 303 308 309 301 289 283 285 290 288 285 280 279 280 277 280 287 287 284 288 291 289 283 278 276 275 275 282 286
244 239 240 250 259 257 257 264 271 278 278 283 285 290 295 285 269 266 269 272 275 272 277 285 292 291 290 291 295 292 294 299 311 332 326 305 305 281 239 238 270 302 43 12 347 318 311 304 301 294 309 316 317 316 311 306 296 286 281 281 280 284 285 288 285 280 276 273 270 273 274 279 278 273 274 280 283 281 275 271 269 270 276 277 279 280 283
243 238 238 240 247 262 259 249 249 255 263 292 302 290 274 262 261 245 237 245 253 261 259 263 267 269 272 265 262 265 273 284 285 302 305 303 316 310 354 350 348 342 339 340 320 306 300 298 295 299 299 302 307 313 307 293 282 281 278 279 278 279 277 276 277 278 276 275 275 278 279 278 273 271 266 264 263 265 265 267 269 267 270 271 275 275 273
255 250 241 245 249 245 239 237 248 291 311 307 299 287 258 238 234 230 220 226 244 251 248 252 257 259 254 259 266 272 275 271 260 233 226 224 233 249 327 337 312 304 297 300 296 298 293 298 301 301 300 300 302 304 292 286 279 279 274 270 268 270 268 266 268 272 271 274 275 274 270 267 261 258 253 254 255 257 259 256 261 260 256 261 263 262 265
240 251 237 230 248 251 257 260 268 278 277 293 290 291 271 206 208 216 232 230 236 254 263 259 258 257 250 241 244 265 283 297 295 250 219 226 242 261 269 278 284 282 292 297 297 291 290 291 291 291 292 292 295 287 282 276 274 271 272 270 270 269 271 271 273 272 275 275 270 266 262 261 262 267 271 271 267 262 262 264 265 264 262 261 264 265 270
232 251 260 249 256 265 253 252 302 288 269 253 251 268 278 271 259 265 262 259 255 254 257 257 253 254 243 235 227 221 217 222 296 303 233 194 226 235 278 298 295 306 303 295 290 285 287 285 284 286 287 289 287 279 279 275 273 269 269 266 269 267 268 271 269 266 265 263 264 266 266 263 260 256 253 253 256 255 254 255 258 263 259 253 257 256 256
237 246 263 272 274 274 266 263 257 259 260 253 243 257 257 263 279 280 277 260 256 262 260 259 261 263 255 230 213 214 213 205 202 237 266 11 334 307 292 289 292 293 291 284 284 286 283 285 285 284 284 283 277 274 272 273 271 271 266 267 266 267 265 263 262 263 262 265 261 260 259 261 259 256 257 255 255 257 255 257 256 256 261 263 264 261 258
253 255 266 260 246 239 225 226 238 241 250 248 243 244 211 119 309 275 261 251 248 264 282 286 276 267 254 228 201 208 204 210 231 253 274 280 287 290 283 281 277 277 274 276 281 280 277 280 282 282 276 266 261 258 256 258 259 258 259 260 261 262 258 260 263 261 257 259 259 258 258 258 256 254 252 253 255 258 256 257 261 262 259 259 261 261 260
219 221 238 233 233 236 213 216 238 250 256 257 261 268 254 237 248 268 269 262 267 273 276 281 278 264 272 252 219 213 206 217 223 232 251 268 267 269 270 268 267 265 267 268 269 276 281 279 275 274 274 267 258 256 256 254 254 257 255 256 257 261 263 260 258 259 257 251 250 250 252 253 257 260 260 260 263 264 264 263 262 260 258 256 257 257 259
232 240 248 253 254 261 264 263 260 256 250 250 246 244 232 233 247 267 266 235 221 230 239 253 283 270 223 220 232 240 224 212 222 235 242 250 259 265 268 271 276 270 265 263 264 261 263 268 273 273 264 259 255 256 259 258 258 258 258 257 254 253 253 253 252 253 256 255 257 260 260 259 260 262 264 262 260 258 260 258 257 258 258 258 256 256 261